Location: Unspecified
(0.0000°N, 0.0000°E)
Time: 19:49:34
(UTC+01:00)

Ariane H10 - Visible Passes

Search period start: 28 March 2015 00:00
Search period end: 07 April 2015 01:00
Orbit: 278 x 24564 km, 4.0° (Epoch: 27 March)

Date Brightness Start Highest point End Pass type
(mag) Time Alt. Az. Time Alt. Az. Time Alt. Az.
28 Mar 2.7 05:38:57 44° S 05:39:01 44° S 05:44:44 10° E visible
29 Mar 6.9 23:53:29 10° W 00:56:50 41° W 00:56:50 41° W visible
30 Mar 6.4 16:15:49 10° W 22:06:39 85° N 22:19:20 46° E visible
31 Mar 5.1 05:53:54 13° ESE 05:53:54 13° ESE 05:54:39 10° ESE visible
01 Apr 6.4 18:54:05 10° W 00:11:28 64° W 00:11:28 64° W visible
02 Apr 6.7 15:22:42 10° W 21:08:03 85° N 21:33:44 27° E visible
04 Apr 7.6 01:59:08 10° W 02:03:16 14° W 02:03:16 14° W visible
04 Apr 6.1 17:42:29 10° W 23:24:51 88° N 23:25:18 87° NE visible
05 Apr 3.1 06:59:29 28° SW 07:00:58 52° S 07:10:06 10° E visible
05 Apr 7.1 14:30:30 10° W 19:57:11 85° N 20:47:19 12° E visible
